Find Starlink 35456

NORAD ID: 65867 Int'l Des: 2025-223 Owner: SPXS Country: US Constellation: starlink operational
LEOCIRCULAR

Live Position

Loading 3D Globe...

About Starlink 35456

Description loading...

Upcoming Passes

Passes for default location (London). Set your location on the main map for personalized predictions.

Altitude History

Loading altitude history...

Two-Line Element Set

1 65867U 25223P 26106.74509091 .00008197 00000-0 28857-3 0 9994
2 65867 53.1598 117.2968 0001127 75.6532 284.4594 15.30200315 30030
Epoch: Apr 16, 2026 • Age: 13 hours

Current Status

Altitude 478.1 km
Velocity 7.63 km/s
Sub-Earth Point -9.60°S, 12.35°W
Launch Date Oct 3, 2025
Age 0.5 years
Type internet

Technical Details

Classification Payload
Mass 575.00 kg
Dry Mass 530.00 kg
Total Mass 575.00 kg
Length 0.30 m
Diameter 4.10 m
Span 29.00 m
Shape Box + pan
Manufacturer SPXS
Bus Type Starlink V2MO
Phase Status In Orbit
Owner/State SPXS/US

Most Searched